| time (UTC) | temp F | wind direction | speed MPH | gust MPH | rain 1hr in | rain 24hr in | rain mn in | humidity % | barometer mb |
| 20260506153246 | 60 | 225 | 2.0 | 4.0 | 0.00 | 0.00 | 0.00 | 86 | 987.5 |
| 20260506152628 | 60 | 225 | 3.0 | 5.0 | 0.00 | 0.00 | 0.00 | 85 | 987.6 |
| 20260506151714 | 60 | 225 | 4.0 | 9.0 | 0.00 | 0.00 | 0.00 | 83 | 987.9 |
| 20260506150922 | 61 | 225 | 5.0 | 9.0 | 0.00 | 0.00 | 0.00 | 82 | 988.1 |
| 20260506145920 | 61 | 203 | 4.0 | 7.0 | 0.00 | 0.00 | 0.00 | 81 | 988.1 |
| 20260506144922 | 61 | 225 | 6.0 | 12.0 | 0.00 | 0.00 | 0.00 | 80 | 988.1 |
| 20260506143921 | 61 | 225 | 1.0 | 3.0 | 0.00 | 0.00 | 0.00 | 80 | 988.0 |
| 20260506142920 | 61 | 225 | 2.0 | 4.0 | 0.00 | 0.00 | 0.00 | 80 | 987.8 |
| 20260506141919 | 61 | 225 | 4.0 | 10.0 | 0.00 | 0.00 | 0.00 | 80 | 987.8 |
| 20260506140918 | 61 | 203 | 1.0 | 5.0 | 0.00 | 0.00 | 0.00 | 81 | 987.9 |
| 20260506135920 | 60 | 293 | 1.0 | 5.0 | 0.00 | 0.00 | 0.00 | 82 | 987.8 |
| 20260506134922 | 60 | 203 | 6.0 | 12.0 | 0.00 | 0.00 | 0.00 | 83 | 987.8 |
| 20260506133919 | 59 | 158 | 2.0 | 9.0 | 0.00 | 0.00 | 0.00 | 84 | 987.9 |
| 20260506132919 | 59 | 0.0 | 2.0 | 0.00 | 0.00 | 0.00 | 84 | 987.8 | |
| 20260506131919 | 58 | 225 | 3.0 | 6.0 | 0.00 | 0.00 | 0.00 | 84 | 987.9 |
| 20260506130919 | 58 | 225 | 6.0 | 11.0 | 0.00 | 0.00 | 0.00 | 84 | 988.2 |
| 20260506125920 | 58 | 180 | 6.0 | 10.0 | 0.00 | 0.00 | 0.00 | 84 | 988.4 |
| 20260506124922 | 58 | 248 | 2.0 | 8.0 | 0.00 | 0.00 | 0.00 | 85 | 988.4 |
| 20260506124026 | 58 | 225 | 5.0 | 6.0 | 0.00 | 0.00 | 0.00 | 85 | 988.6 |
| 20260506123419 | 58 | 225 | 9.0 | 14.0 | 0.00 | 0.00 | 0.00 | 85 | 988.4 |
| 20260506122419 | 57 | 248 | 4.0 | 9.0 | 0.00 | 0.00 | 0.00 | 85 | 988.1 |
| 20260506121419 | 57 | 203 | 3.0 | 5.0 | 0.00 | 0.00 | 0.00 | 85 | 988.0 |
| 20260506120419 | 57 | 180 | 1.0 | 4.0 | 0.00 | 0.00 | 0.00 | 85 | 988.0 |
| 20260506115419 | 57 | 180 | 4.0 | 7.0 | 0.00 | 0.00 | 0.00 | 85 | 988.1 |
| 20260506114419 | 57 | 0.0 | 0.0 | 0.00 | 0.00 | 0.00 | 85 | 988.4 | |
| 20260506113425 | 57 | 203 | 4.0 | 6.0 | 0.00 | 0.00 | 0.00 | 85 | 988.5 |
| 20260506112524 | 57 | 225 | 1.0 | 4.0 | 0.00 | 0.00 | 0.00 | 85 | 988.2 |
| 20260506112334 | 57 | 225 | 1.0 | 2.0 | 0.00 | 0.00 | 0.00 | 85 | 988.3 |
| 20260506112034 | 57 | 203 | 2.0 | 5.0 | 0.00 | 0.00 | 0.00 | 85 | 988.2 |
| 20260506111834 | 57 | 203 | 2.0 | 5.0 | 0.00 | 0.00 | 0.00 | 85 | 988.2 |
| 20260506111131 | 57 | 225 | 4.0 | 5.0 | 0.00 | 0.00 | 0.00 | 85 | 988.2 |
| 20260506110042 | 56 | 248 | 3.0 | 7.0 | 0.00 | 0.00 | 0.00 | 85 | 988.4 |
| 20260506105420 | 56 | 225 | 1.0 | 4.0 | 0.00 | 0.00 | 0.00 | 85 | 988.3 |
| 20260506104421 | 56 | 225 | 3.0 | 6.0 | 0.00 | 0.00 | 0.00 | 85 | 988.3 |
| 20260506103419 | 56 | 203 | 1.0 | 7.0 | 0.00 | 0.00 | 0.00 | 85 | 988.2 |
| 20260506102525 | 56 | 203 | 3.0 | 5.0 | 0.00 | 0.00 | 0.00 | 84 | 988.2 |
| 20260506101851 | 56 | 225 | 1.0 | 3.0 | 0.00 | 0.00 | 0.00 | 84 | 988.3 |
| 20260506101348 | 56 | 225 | 2.0 | 5.0 | 0.00 | 0.00 | 0.00 | 83 | 988.3 |
| 20260506101137 | 56 | 225 | 2.0 | 4.0 | 0.00 | 0.00 | 0.00 | 83 | 988.4 |
| 20260506100850 | 56 | 225 | 1.0 | 4.0 | 0.00 | 0.00 | 0.00 | 82 | 988.4 |
| 20260506100432 | 56 | 0.0 | 1.0 | 0.00 | 0.00 | 0.00 | 82 | 988.3 | |
| 20260506100232 | 56 | 225 | 1.0 | 4.0 | 0.00 | 0.00 | 0.00 | 82 | 988.3 |
| 20260506095833 | 56 | 225 | 1.0 | 3.0 | 0.00 | 0.00 | 0.00 | 82 | 988.4 |
| 20260506094930 | 56 | 225 | 1.0 | 3.0 | 0.00 | 0.00 | 0.00 | 82 | 988.4 |
| 20260506094519 | 56 | 0.0 | 0.0 | 0.00 | 0.00 | 0.00 | 82 | 988.2 | |
| 20260506093519 | 57 | 225 | 1.0 | 3.0 | 0.00 | 0.00 | 0.00 | 82 | 988.4 |
| 20260506092519 | 57 | 225 | 4.0 | 7.0 | 0.00 | 0.00 | 0.00 | 81 | 988.7 |
| 20260506091521 | 57 | 225 | 2.0 | 5.0 | 0.00 | 0.00 | 0.00 | 81 | 988.7 |
| 20260506090519 | 57 | 225 | 2.0 | 6.0 | 0.00 | 0.00 | 0.00 | 81 | 988.6 |
| 20260506085520 | 57 | 203 | 1.0 | 4.0 | 0.00 | 0.00 | 0.00 | 80 | 988.7 |
| 20260506084523 | 57 | 225 | 2.0 | 4.0 | 0.00 | 0.00 | 0.00 | 80 | 988.9 |
| 20260506083519 | 57 | 225 | 3.0 | 4.0 | 0.00 | 0.00 | 0.00 | 80 | 989.0 |
| 20260506082527 | 58 | 225 | 1.0 | 3.0 | 0.00 | 0.00 | 0.00 | 79 | 988.9 |
| 20260506081519 | 58 | 225 | 3.0 | 7.0 | 0.00 | 0.00 | 0.00 | 79 | 989.1 |
| 20260506080519 | 58 | 180 | 1.0 | 3.0 | 0.00 | 0.00 | 0.00 | 78 | 989.2 |
| 20260506073519 | 58 | 180 | 1.0 | 6.0 | 0.00 | 0.00 | 0.00 | 77 | 989.3 |
| 20260506072524 | 58 | 225 | 3.0 | 8.0 | 0.00 | 0.00 | 0.00 | 77 | 989.2 |
| 20260506071526 | 58 | 203 | 3.0 | 5.0 | 0.00 | 0.00 | 0.00 | 77 | 989.1 |
| 20260506070519 | 59 | 225 | 2.0 | 4.0 | 0.00 | 0.00 | 0.00 | 76 | 989.3 |
| 20260506061519 | 60 | 248 | 4.0 | 5.0 | 0.00 | 0.00 | 0.00 | 74 | 989.4 |
| 20260506060540 | 60 | 158 | 2.0 | 9.0 | 0.00 | 0.00 | 0.00 | 74 | 989.4 |
| 20260506060419 | 60 | 225 | 1.0 | 3.0 | 0.00 | 0.00 | 0.00 | 74 | 989.3 |
| 20260506050421 | 62 | 225 | 3.0 | 5.0 | 0.00 | 0.00 | 0.00 | 72 | 989.4 |
| 20260506044524 | 62 | 225 | 7.0 | 12.0 | 0.00 | 0.00 | 0.00 | 72 | 989.5 |
| 20260506043618 | 62 | 225 | 4.0 | 9.0 | 0.00 | 0.00 | 0.00 | 73 | 989.2 |
| 20260506042618 | 63 | 225 | 5.0 | 8.0 | 0.00 | 0.00 | 0.00 | 73 | 989.4 |
| 20260506041618 | 63 | 225 | 4.0 | 6.0 | 0.00 | 0.00 | 0.00 | 73 | 989.2 |
| 20260506040618 | 63 | 180 | 7.0 | 10.0 | 0.00 | 0.00 | 0.00 | 73 | 989.0 |
| 20260506035618 | 63 | 180 | 3.0 | 7.0 | 0.00 | 0.00 | 0.00 | 73 | 988.9 |
| 20260506034624 | 63 | 203 | 3.0 | 7.0 | 0.00 | 0.00 | 0.00 | 73 | 989.1 |
| 20260506033621 | 64 | 180 | 4.0 | 6.0 | 0.00 | 0.00 | 0.00 | 73 | 989.1 |
| 20260506032618 | 64 | 180 | 5.0 | 10.0 | 0.00 | 0.00 | 0.00 | 73 | 989.2 |
| 20260506031730 | 64 | 225 | 5.0 | 8.0 | 0.00 | 0.00 | 0.00 | 73 | 989.1 |
| 20260506031318 | 64 | 248 | 5.0 | 9.0 | 0.00 | 0.00 | 0.00 | 73 | 989.1 |
| 20260506030319 | 64 | 248 | 2.0 | 5.0 | 0.00 | 0.00 | 0.00 | 73 | 989.0 |
| 20260506025320 | 64 | 225 | 1.0 | 3.0 | 0.00 | 0.00 | 0.00 | 73 | 988.8 |
| 20260506024320 | 64 | 180 | 4.0 | 8.0 | 0.00 | 0.00 | 0.00 | 73 | 988.9 |
| 20260506023319 | 64 | 203 | 2.0 | 6.0 | 0.00 | 0.00 | 0.00 | 73 | 988.8 |
| 20260506022322 | 64 | 225 | 2.0 | 6.0 | 0.00 | 0.00 | 0.00 | 73 | 988.8 |
| 20260506021319 | 64 | 203 | 3.0 | 7.0 | 0.00 | 0.00 | 0.00 | 73 | 988.8 |
| 20260506020320 | 63 | 203 | 3.0 | 5.0 | 0.00 | 0.00 | 0.00 | 73 | 988.8 |
| 20260506015318 | 63 | 248 | 1.0 | 3.0 | 0.00 | 0.00 | 0.00 | 74 | 988.4 |
| 20260506014318 | 63 | 225 | 1.0 | 3.0 | 0.00 | 0.00 | 0.00 | 75 | 988.3 |
| 20260506013321 | 63 | 203 | 1.0 | 3.0 | 0.00 | 0.00 | 0.00 | 76 | 988.3 |
| 20260506012319 | 64 | 203 | 1.0 | 2.0 | 0.00 | 0.00 | 0.00 | 74 | 988.1 |
| 20260506011319 | 64 | 0.0 | 2.0 | 0.00 | 0.00 | 0.00 | 73 | 988.0 | |
| 20260506010318 | 64 | 180 | 1.0 | 2.0 | 0.00 | 0.00 | 0.00 | 72 | 987.9 |
| 20260506005318 | 64 | 203 | 2.0 | 4.0 | 0.00 | 0.00 | 0.00 | 72 | 987.9 |
| 20260506004318 | 64 | 225 | 2.0 | 5.0 | 0.00 | 0.00 | 0.00 | 72 | 987.7 |
| 20260506003318 | 64 | 0.0 | 2.0 | 0.00 | 0.00 | 0.00 | 73 | 987.9 | |
| 20260506002318 | 64 | 0.0 | 0.0 | 0.00 | 0.00 | 0.00 | 74 | 987.8 | |
| 20260506001322 | 64 | 0.0 | 0.0 | 0.00 | 0.00 | 0.00 | 73 | 987.8 | |
| 20260506000318 | 64 | 0.0 | 0.0 | 0.00 | 0.00 | 0.00 | 73 | 987.8 | |
| 20260505235318 | 64 | 0.0 | 0.0 | 0.00 | 0.00 | 0.00 | 73 | 987.8 | |
| 20260505234319 | 65 | 0.0 | 0.0 | 0.00 | 0.00 | 0.00 | 73 | 987.3 | |
| 20260505233321 | 65 | 0.0 | 0.0 | 0.00 | 0.00 | 0.00 | 72 | 987.4 | |
| 20260505232318 | 65 | 0.0 | 0.0 | 0.00 | 0.00 | 0.00 | 71 | 987.4 | |
| 20260505231318 | 65 | 293 | 4.0 | 6.0 | 0.00 | 0.00 | 0.00 | 72 | 987.3 |
| 20260505230318 | 64 | 293 | 2.0 | 5.0 | 0.00 | 0.00 | 0.00 | 73 | 987.0 |
| 20260505225323 | 64 | 293 | 4.0 | 8.0 | 0.00 | 0.00 | 0.00 | 73 | 986.9 |
| 20260505224321 | 64 | 315 | 3.0 | 5.0 | 0.00 | 0.00 | 0.00 | 74 | 986.6 |
| 20260505223318 | 65 | 338 | 4.0 | 8.0 | 0.00 | 0.00 | 0.00 | 73 | 986.4 |
| 20260505222318 | 66 | 315 | 1.0 | 3.0 | 0.00 | 0.00 | 0.00 | 70 | 986.5 |
| 20260505221320 | 66 | 315 | 1.0 | 2.0 | 0.00 | 0.00 | 0.00 | 69 | 986.1 |
| 20260505220319 | 67 | 293 | 2.0 | 4.0 | 0.00 | 0.00 | 0.00 | 65 | 985.9 |
| 20260505215318 | 68 | 23 | 3.0 | 6.0 | 0.00 | 0.00 | 0.00 | 64 | 985.4 |
| 20260505214318 | 68 | 293 | 9.0 | 13.0 | 0.00 | 0.00 | 0.00 | 62 | 985.8 |
| 20260505213319 | 67 | 293 | 3.0 | 4.0 | 0.00 | 0.00 | 0.00 | 64 | 985.4 |
| 20260505212318 | 68 | 270 | 1.0 | 3.0 | 0.00 | 0.00 | 0.00 | 61 | 985.8 |
| 20260505211318 | 70 | 315 | 8.0 | 12.0 | 0.00 | 0.00 | 0.00 | 55 | 985.7 |
| 20260505210320 | 77 | 293 | 12.0 | 16.0 | 0.00 | 0.00 | 0.00 | 38 | 985.7 |
| 20260505205433 | 78 | 225 | 15.0 | 23.0 | 0.00 | 0.00 | 0.00 | 35 | 984.5 |
| 20260505204718 | 78 | 248 | 12.0 | 17.0 | 0.00 | 0.00 | 0.00 | 34 | 984.3 |
| 20260505203726 | 79 | 248 | 11.0 | 15.0 | 0.00 | 0.00 | 0.00 | 34 | 984.1 |
| 20260505202720 | 79 | 203 | 11.0 | 20.0 | 0.00 | 0.00 | 0.00 | 33 | 984.1 |
| 20260505201725 | 79 | 225 | 15.0 | 27.0 | 0.00 | 0.00 | 0.00 | 33 | 984.1 |
| 20260505200721 | 79 | 248 | 13.0 | 25.0 | 0.00 | 0.00 | 0.00 | 33 | 984.4 |
| 20260505195720 | 79 | 203 | 12.0 | 23.0 | 0.00 | 0.00 | 0.00 | 33 | 984.5 |
| 20260505194719 | 79 | 225 | 17.0 | 28.0 | 0.00 | 0.00 | 0.00 | 35 | 984.5 |
| 20260505193718 | 79 | 248 | 13.0 | 20.0 | 0.00 | 0.00 | 0.00 | 32 | 984.6 |
| 20260505192722 | 79 | 225 | 14.0 | 23.0 | 0.00 | 0.00 | 0.00 | 32 | 984.8 |
| 20260505191720 | 79 | 248 | 15.0 | 23.0 | 0.00 | 0.00 | 0.00 | 33 | 984.9 |
| 20260505190718 | 79 | 225 | 14.0 | 21.0 | 0.00 | 0.00 | 0.00 | 33 | 984.9 |
| 20260505185720 | 79 | 248 | 14.0 | 21.0 | 0.00 | 0.00 | 0.00 | 34 | 984.8 |
| 20260505184829 | 78 | 225 | 10.0 | 18.0 | 0.00 | 0.00 | 0.00 | 38 | 985.0 |
| 20260505184020 | 78 | 225 | 13.0 | 25.0 | 0.00 | 0.00 | 0.00 | 38 | 985.0 |
| 20260505183020 | 78 | 180 | 8.0 | 18.0 | 0.00 | 0.00 | 0.00 | 37 | 985.1 |
| 20260505182020 | 79 | 248 | 19.0 | 28.0 | 0.00 | 0.00 | 0.00 | 35 | 985.2 |
| 20260505181020 | 79 | 225 | 14.0 | 26.0 | 0.00 | 0.00 | 0.00 | 37 | 985.6 |
| 20260505180020 | 79 | 248 | 13.0 | 24.0 | 0.00 | 0.00 | 0.00 | 36 | 985.7 |
| 20260505175020 | 78 | 248 | 13.0 | 35.0 | 0.00 | 0.00 | 0.00 | 37 | 985.8 |
| 20260505174020 | 78 | 203 | 9.0 | 14.0 | 0.00 | 0.00 | 0.00 | 39 | 985.9 |
| 20260505173019 | 77 | 180 | 8.0 | 16.0 | 0.00 | 0.00 | 0.00 | 41 | 986.0 |
| 20260505172128 | 77 | 225 | 5.0 | 10.0 | 0.00 | 0.00 | 0.00 | 40 | 986.2 |
| 20260505171220 | 77 | 225 | 8.0 | 17.0 | 0.00 | 0.00 | 0.00 | 40 | 986.2 |
| 20260505170220 | 77 | 225 | 8.0 | 13.0 | 0.00 | 0.00 | 0.00 | 40 | 986.2 |
| 20260505165219 | 77 | 225 | 8.0 | 12.0 | 0.00 | 0.00 | 0.00 | 41 | 986.4 |
| 20260505164221 | 76 | 225 | 8.0 | 16.0 | 0.00 | 0.00 | 0.00 | 44 | 986.5 |
| 20260505163218 | 76 | 158 | 9.0 | 19.0 | 0.00 | 0.00 | 0.00 | 43 | 986.8 |
| 20260505162219 | 75 | 203 | 10.0 | 18.0 | 0.00 | 0.00 | 0.00 | 44 | 986.9 |
| 20260505161219 | 74 | 248 | 11.0 | 17.0 | 0.00 | 0.00 | 0.00 | 46 | 987.2 |
| 20260505160220 | 74 | 225 | 5.0 | 9.0 | 0.00 | 0.00 | 0.00 | 47 | 987.4 |